Regional Weather Roundup
Issued by NWS

Home | Current Version | Previous Version | Graphics & Text | Print | Product List | Glossary On
Versions: 1 2 3 4 5 6 7 8 9 10 11 12 13 14 15 16 17 18 19 20 21 22 23 24 25 26 27 28
000
ASUS45 KTFX 261010
RWRMT
MONTANA REGIONAL WEATHER ROUNDUP
NATIONAL WEATHER SERVICE GREAT FALLS MT
400 AM MDT FRI MAY 26 2017

NOTE: "FAIR" INDICATES FEW OR NO CLOUDS BELOW 12000 FEET WITH NO
SIGNIFICANT WEATHER AND/OR OBSTRUCTIONS TO VISIBILITY.

MTZ001>007-043-261100-
WEST OF THE DIVIDE

CITY           SKY/WX    TMP DP  RH WIND       PRES   REMARKS
KALISPELL      PTCLDY    44  39  82 N7        29.92R
MISSOULA       CLOUDY    47  37  68 N5        29.91R
BUTTE          CLOUDY    33  27  78 SE3       29.94S
MULLAN PASS    CLEAR     38  32  79 CALM      29.93R
ANACONDA         N/A     37  28  70 CALM      29.94S
DEER LODGE       N/A     39  34  81 CALM      29.96R
EUREKA           N/A     37  36  93 CALM      29.94S
HAMILTON         N/A     43  34  70 CALM      29.89R
RONAN            N/A     48  39  71 N3        29.97R
$$

MTZ008-052>055-261100-
SOUTHWEST MONTANA

CITY           SKY/WX    TMP DP  RH WIND       PRES   REMARKS
BOZEMAN        CLEAR     33  30  88 E6        29.94R WCI  28
DILLON         CLOUDY    44  30  57 NE10      29.90S
W YELLOWSTONE  CLOUDY    39  27  60 NE8       29.93R
ENNIS          MOCLDY    41  32  70 N7        29.96S
THREE FORKS      N/A     33  31  93 S2        29.93S
TWIN BRIDGES     N/A     43  28  55 N10       29.91S
$$

MTZ009-010-012-014-046-048-049-054-261100-
EAST SLOPES AND CENTRAL MONTANA

CITY           SKY/WX    TMP DP  RH WIND       PRES   REMARKS
CUT BANK       PTCLDY    38  34  85 W10       29.92R WCI  31
GREAT FALLS    PTCLDY    38  34  85 W7        29.94R
MALMSTROM AFB  PTCLDY    41  37  87 SW7       29.94R
HELENA         CLOUDY    43  36  76 W5        29.94R
CHOTEAU          N/A     39  34  81 W5        29.95S
CONRAD           N/A     40  40 100 W2        29.95S
$$

MTZ011-013-016-021-045-047-050-051-261100-
NORTH CENTRAL MONTANA

CITY           SKY/WX    TMP DP  RH WIND       PRES   REMARKS
HAVRE          CLOUDY    41  39  93 W10       29.86R
LEWISTOWN      CLOUDY    38  34  85 SW3       29.92R
N BAR RANCH      N/A     37  34  87 NW8       29.94R WCI  31
CHINOOK          N/A     46  39  76 W9        29.83S
$$

MTZ017>020-022>027-061-062-261100-
NORTHEAST MONTANA

CITY           SKY/WX    TMP DP  RH WIND       PRES   REMARKS
GLASGOW        CLOUDY    43  36  76 W13       29.78R
JORDAN           N/A     40  35  83 W3        29.83S
SIDNEY         CLOUDY    50  39  66 W15       29.73R
WOLF POINT     CLOUDY    50  38  63 W14       29.75R
MALTA          MOCLDY    43  37  81 W13       29.81R
PLENTYWOOD       N/A     48  41  76 W17       29.65S
POPLAR           N/A     48  39  71 W13G20    29.74R
$$

MTZ028>42-056>058-261100-
SOUTHCENTRAL AND SOUTHEAST MONTANA

CITY           SKY/WX    TMP DP  RH WIND       PRES   REMARKS
BAKER          PTCLDY    40  35  83 W8        29.81R
BILLINGS       CLEAR     41  32  70 SW8       29.91R
LIVINGSTON     CLOUDY    33  30  88 CALM      29.93S
MILES CITY     CLOUDY    46  36  68 NW7       29.84R
BIG TIMBER     CLEAR     37  32  81 W13       29.96R WCI  29
FORSYTH          N/A     46  36  66 W3        29.86S
LAUREL           N/A     37  29  73 W5        29.90F
ROUNDUP          N/A     46  34  63 W9        29.82S
$$

REGIONAL REPORTS...DAKOTAS

CITY           SKY/WX    TMP DP  RH WIND       PRES   REMARKS
WILLISTON      CLOUDY    51  41  68 W15       29.69R
MINOT          CLEAR     50  43  77 W16       29.60S
DICKINSON      CLOUDY    48  36  63 W17       29.71R
BEACH          CLOUDY    45  41  87 W17G23    29.80R
CROSBY         CLOUDY    48  46  93 MISG      29.63R
TIOGA          CLOUDY    48  48 100 W17       29.66R
WATFORD CITY   MOCLDY    48  41  76 W15G22    29.69R
BISMARCK       CLEAR     49  42  77 W9        29.70R
GRAND FORKS    CLEAR     46  44  93 SW7       29.58R
FARGO          PTCLDY    49  48  97 SW6       29.62R
BUFFALO SD       N/A     46  37  71 NW17      29.76R
RAPID CITY     CLEAR     38  32  79 CALM      29.88R
$$

REGIONAL REPORTS...WYOMING/IDAHO/WASHINGTON

CITY           SKY/WX    TMP DP  RH WIND       PRES   REMARKS
GILLETTE       CLEAR     33  31  92 S5        29.92R
SHERIDAN       CLEAR     36  31  82 S3        29.91S
BUFFALO WY     CLOUDY    45  36  70 S10       29.93S
CODY           CLOUDY    44  33  65 CALM      29.94S
YELLOWSTONE LA   N/A     35  27  72 CALM      29.95R
IDAHO FALLS    CLOUDY    38  33  82 NW5       29.82R
SALMON         CLOUDY    45  39  81 NW3       29.88S
BOISE          MOCLDY    49  42  77 SW3       29.82R
SPOKANE        PTCLDY    47  39  74 CALM      29.89R
$$

REGIONAL REPORTS...ALBERTA

CITY           SKY/WX    TMP DP  RH WIND       PRES   REMARKS
EDMONTON       CLEAR     46  41  81 W8        29.78R
CALGARY        PTCLDY    43  34  70 VRB2      29.89R
LETHBRIDGE     CLEAR     39  36  87 SW10      29.90S
MEDICINE HAT   CLOUDY    48  39  71 W14       29.82R
WATERTON GATE    N/A     36  34  93 S9          N/A  WCI  29
CARDSTON         N/A     39  34  81 SW5         N/A
MILK RIVER       N/A     41  36  81 W12         N/A
ONEFOUR          N/A     39  37  93 NW15        N/A  WCI  31
$$

REGIONAL REPORTS...SASKATCHEWAN

CITY           SKY/WX    TMP DP  RH WIND       PRES   REMARKS
SWIFT CURRENT  PTCLDY    45  41  87 W17G23    29.71R
REGINA         CLOUDY    48  45  87 NW23      29.58R
SASKATOON      MOCLDY    45  43  93 W17G24    29.61R
VAL MARIE        N/A     41  37  87 W14         N/A
ROCKGLEN         N/A     45  39  81 NW16G25     N/A
ASSINIBOIA       N/A     48  39  71 W8          N/A
$$




USA.gov is the U.S. government's official web portal to all federal, state and local government web resources and services.